Simultaneous Nadir Overpasses (SNOs) Predictions

Prediction of SNOs between GOES-17 and NOAA-19 Satellite Orbit:

Table of predicted SNOs for the next 14.0 days since TLE Epoch: 7/23/2022
Index Date Time (GOES-17) GOES-17 Lat,Lon NOAA-19 Lat,Lon Distance(km) Time Diff (sec)
1 07/23/2022 17:16:32 0.02,-137.30 0.93,-141.13 438.19 80
2 07/24/2022 17:04:41 0.03,-137.30 0.27,-138.24 108.09 80
3 07/25/2022 16:55:29 0.03,-137.30 -0.40,-135.35 221.90 80
4 07/28/2022 05:13:33 -0.02,-137.28 -0.69,-140.27 340.49 80
5 07/29/2022 05:01:42 -0.01,-137.27 -0.01,-137.38 11.39 80
6 07/30/2022 04:52:30 -0.01,-137.27 0.66,-134.49 318.27 80
7 08/01/2022 17:10:14 -0.01,-137.25 0.47,-139.32 235.70 80
8 08/02/2022 17:01:02 -0.01,-137.24 -0.20,-136.43 93.33 80
9 08/03/2022 16:49:11 -0.01,-137.23 -0.87,-133.53 422.22 80
10 08/05/2022 05:19:03 0.01,-137.20 -0.98,-141.32 470.83 80
